Back to catalog

SL-16 DEB

AliveLEO
NORAD 20628·DEBRIS·🇷🇺 Russia

Launched May 22, 1990 from Baikonur Cosmodrome

Loading…

Next Passes (next 24 hours)

TLE

FreshSource: Space-Track

Epoch: Sep 14, 2026, 14:01 UTC

1 20628U 90046E   26257.58452702  .00000054  00000-0  89832-4 0  9995
2 20628  70.9792 359.5155 0204853  90.6709 271.7867 13.72506314817747

Track SL-16 DEB in real time with AllMySat

Download on the App Store